Regional Weather Roundup
Issued by NWS

Home | Current Version | Previous Version | Graphics & Text | Print | Product List | Glossary Off
Versions: 1 2 3 4 5 6 7 8 9 10 11 12 13 14 15 16 17 18 19 20 21 22 23 24 25 26 27 28 29 30 31 32 33 34 35 36 37 38 39 40 41 42 43 44 45 46 47 48 49 50

000
ASUS43 KMKX 271200
RWRWI

WISCONSIN REGIONAL WEATHER ROUNDUP
NATIONAL WEATHER SERVICE MILWAUKEE/SULLIVAN WI
700 AM CDT WED AUG 27 2014

NOTE: "FAIR" INDICATES FEW OR NO CLOUDS BELOW 12,000 FEET WITH NO
SIGNIFICANT WEATHER AND/OR OBSTRUCTIONS TO VISIBILITY.

WIZ001-002-006>008-014>016-023>028-271300-
NORTHWEST WISCONSIN

CITY           SKY/WX    TMP DP  RH WIND       PRES   REMARKS
SUPERIOR ARPT  FOG       47  47 100 SW6       30.21R VSB 1/4
ASHLAND        CLEAR     50  49  96 W3        30.21S
6HR MIN TEMP:  49; 6HR MAX TEMP:  57;

HAYWARD        FOG       51  50  96 CALM      30.21S VSB 1
6HR MIN TEMP:  50; 6HR MAX TEMP:  58; 6HR PCP: TRACE;

SIREN          MOCLDY    54  53  97 CALM      30.21R
RICE LAKE      MOCLDY    55  53  94 CALM      30.21F FOG
6HR MIN TEMP:  54; 6HR MAX TEMP:  60;

LADYSMITH      MOCLDY    56  54  94 CALM      30.22R
EAU CLAIRE     NOT AVBL
MENOMONIE      PTSUNNY   59  57  94 CALM      30.20S
6HR MIN TEMP:  58; 6HR MAX TEMP:  63; 6HR PCP:  0.01;

NEW RICHMOND   CLOUDY    57  56  97 CALM      30.21R
OSCEOLA        PTCLDY    55  55 100 CALM      30.23S
$$

WIZ003>005-009-010-017-018-271300-
NORTH CENTRAL WISCONSIN

CITY           SKY/WX    TMP DP  RH WIND       PRES   REMARKS
WOODRUFF       PTCLDY    57  55  95 CALM      30.19S
RHINELANDER    CLOUDY    54  53  97 CALM      30.20R
6HR MIN TEMP:  53; 6HR MAX TEMP:  56; 6HR PCP:  0.03;

EAGLE RIVER    CLOUDY    52  52 100 CALM      30.18S
LAND O LAKES   CLOUDY    51  51 100 CALM      30.20S
PHILLIPS       CLEAR     53  52  97 CALM      30.20R
TOMAHAWK       CLOUDY    51  50  97 CALM      30.20R FOG
MEDFORD        FOG       51  51 100 CALM      30.20R VSB 1/4
MERRILL        FOG       53  53 100 CALM      30.20R VSB 1/2
$$

WIZ029-030-035-036-043>047-271300-
CENTRAL WISCONSIN

CITY           SKY/WX    TMP DP  RH WIND       PRES   REMARKS
WAUSAU         PTCLDY    58  56  93 N3        30.18R
6HR MIN TEMP:  57; 6HR MAX TEMP:  60; 6HR PCP:  0.02;

MOSINEE        PTCLDY    55  55 100 CALM      30.20R
MARSHFIELD     PTCLDY    56  54  93 CALM      30.18S
6HR MIN TEMP:  55; 6HR MAX TEMP:  62; 6HR PCP: TRACE;

STEVENS POINT  PTCLDY    55  54  97 CALM      30.18S
WAUPACA        LGT RAIN  59  57  93 CALM      30.18R
WAUTOMA        NOT AVBL
WISC RAPIDS    PTCLDY    58  55  90 CALM      30.19S
6HR MIN TEMP:  58; 6HR MAX TEMP:  62;

CAMP DOUGLAS   NOT AVBL
$$

WIZ011>013-019>022-031-037>040-048>050-271300-
NORTHEAST WISCONSIN

CITY           SKY/WX    TMP DP  RH WIND       PRES   REMARKS
ANTIGO         PTCLDY    53  53 100 CALM      30.20R
STURGEON BAY   MOCLDY    59  52  77 CALM      30.18R
6HR MIN TEMP:  57; 6HR MAX TEMP:  61;

GREEN BAY      MOCLDY    59  57  93 NW5       30.18R
6HR MIN TEMP:  56; 6HR MAX TEMP:  61;

MANITOWOC      NOT AVBL
APPLETON       MOCLDY    59  52  77 CALM      30.18R
CLINTONVILLE   MOCLDY    57  54  88 CALM      30.18R
OSHKOSH        MOCLDY    64  54  69 E7        30.15S
6HR MIN TEMP:  62; 6HR MAX TEMP:  65; 6HR PCP: TRACE;

$$

WIZ032>034-041-042-053>061-271300-
SOUTHWEST WISCONSIN

CITY           SKY/WX    TMP DP  RH WIND       PRES   REMARKS
LA CROSSE      CLOUDY    64  57  78 CALM      30.17S
6HR MIN TEMP:  61; 6HR MAX TEMP:  65; 6HR PCP: TRACE;

SPARTA         CLOUDY    57  56  95 CALM      30.18S
VIROQUA        CLOUDY    58  58 100 CALM      30.17F
BOSCOBEL       MOCLDY    61  59  93 CALM      30.17S
6HR MIN TEMP:  60; 6HR MAX TEMP:  65;

PRAIRIE DU CHI CLEAR     58  55  91 E3        30.16S
PLATTEVILLE    FAIR      60  57  89 NE3       30.18F
$$

WIZ056-057-062-063-064-067-068-271300-
SOUTH CENTRAL WISCONSIN

CITY           SKY/WX    TMP DP  RH WIND       PRES   REMARKS
BARABOO/DELLS  CLOUDY    60  55  83 CALM      30.17S
LONE ROCK      NOT AVBL
WATERTOWN      CLEAR     59  58  98 CALM      30.17R
MADISON        PTCLDY    60  57  89 CALM      30.17S
6HR MIN TEMP:  58; 6HR MAX TEMP:  64; 6HR PCP: TRACE;

MIDDLETON      PTSUNNY   59  58  97 CALM      30.18S
MONROE         CLEAR     61  59  94 N5        30.17S
JANESVILLE     MOCLDY    63  61  94 NW6       30.16S
$$

WIZ051-052-058>065-066-070>072-271300-
SOUTHEAST WISCONSIN

CITY           SKY/WX    TMP DP  RH WIND       PRES   REMARKS
MILWAUKEE      PTCLDY    63  57  81 NW3       30.16R
6HR MIN TEMP:  62; 6HR MAX TEMP:  67;

WAUKESHA       NOT AVBL
MILWAUKEE/TIMM MOCLDY    59  55  88 CALM      30.17R
RACINE         PTCLDY    63  58  83 NW3       30.17R
6HR MIN TEMP:  63; 6HR MAX TEMP:  67;

BURLINGTON     PTCLDY    57  57  99 CALM      30.17R
KENOSHA        PTCLDY    61  59  93 CALM      30.16R
6HR MIN TEMP:  60; 6HR MAX TEMP:  66;

FOND DU LAC    PTCLDY    61  57  87 E5        30.17R
6HR MIN TEMP:  61; 6HR MAX TEMP:  65; 6HR PCP: TRACE;

SHEBOYGAN      CLOUDY    63  58  83 E6        30.16S
6HR MIN TEMP:  61; 6HR MAX TEMP:  63; 6HR PCP:  0.01;

WEST BEND      CLOUDY    61  55  82 N6        30.17R
JUNEAU         MOCLDY    58  57  96 CALM      30.18R
$$

LSZ147-162-271300-
LAKE SUPERIOR

STATION/POSITION TIME  TEMP    WIND        PRES    WAVE
                       AIR SEA DIR/SP/G            HT/PER
                 (UTC) (F)     (DEG/KT/KT) (MB)    (FT/S)
W MID LAKE BUOY  1050   56 54  290/  6/  6 1021.8R   0
DEVILS ISLAND    1100   58     300/  7/  8 1022.5R
PORT WING        1100   58     310/  4/  6 1022.7R
SAXON HARBOR     1100   56     200/  5/  6 1022.4R
$$

LMZ867-665-643>646-271300-
LAKE MICHIGAN

STATION/POSITION TIME  TEMP    WIND        PRES    WAVE
                       AIR SEA DIR/SP/G            HT/PER
                 (UTC) (F)     (DEG/KT/KT) (MB)    (FT/S)
N MID LAKE BUOY  1050   62 65  350/  8/ 10 1020.8S   1/ 4
NORTHPORT PIER   1100   62     340/  8/ 11 1021.0S
SISTER BAY       1011   60        CALM       N/A
ALGOMA LAKESHORE 0953           40/  5/  7   N/A
KEWAUNEE LAKESHO 1100   62      60/  4/  7 1020.2R
SHEBOYGAN LAKESH 1100   64 66   30/ 20/ 21 1021.0R
ATWATER BUOY     1100   67     350/  8/ 12 1021.8R
MILWAUKEE LAKESH 1100   65     340/  5/  6   N/A
S MID LAKE BUOY  1050   68 69   60/  4/  4 1020.1R   0
KENOSHA   LAKESH 1100   67     330/  5/  8 1020.3R
$$

TC  - TEMPERATURE IN CELSIUS
VSB - VISIBILITY IN STATUTE MILES
WCI - WIND CHILL INDEX
HX  - HEAT INDEX




USA.gov is the U.S. government's official web portal to all federal, state and local government web resources and services.